DECAYED

STARLINK-1740, 46566 (Decayed)

Orbit data source: Space-Track

STARLINK-1740, 46566 was a payload satellite owned by SpaceX/Seattle (US) in LEO that was launched on Tue, 06 Oct 2020 UTC via an FALCON 9 launch vehicle from the Air Force Eastern Test Range (AFETR). Payload-class satellites include a variety of spacecraft equipped with specific instruments for various scientific and technological missions. These include communications satellites like Starlink; space stations such as the ISS; scientific satellites like the Hubble; Earth observation satellites from companies like Planet Labs, Umbra, and HawkEye 360; GPS; miniature CubeSats for education and research; and military/defense satellites.

Not visible in the next 10 days
Identifier
46566, 2020-070AL
Orbit
Decayed
Country
Flag of USUS
Related business
Manufacturer
SpaceX/Seattle
Mission
Decayed Commercial Communications
Bus & Motor
STARLINK, Unknown motor
Mass
260 kg wet, ~248 kg dry
Launch date (UTC)
2020-10-06 (5 years ago)
Launch vehicle
FALCON 9
Launch site
Air Force Eastern Test Range (AFETR)
Object type
Payload
Rocket body
Debris
Shape & HBR
Box + 1 Pan, 10.1 m
Radar Cross Section
13.562 m², Large (>1 m²)

Expand to show TLE details & history
Last TLE update: 1 month ago

TLE from 1 month ago
0 STARLINK-1740
1 46566U 20070AL  26029.03161262  .10732719  12346-4  62041-3 0  9992
2 46566  53.0268 273.1813 0005535 224.9365 273.3778 16.41802570294665
Epoch: 2026-01-29T00:45Z
TLE epoch observation values (Epoch: 2026-01-29T00:45:31.330Z)
Latitude
32.24626°
Longitude
-74.66594°
Altitude
162.861 km
Speed
7.813 km/s
True Right ascension
04h 20m 01s
True Declination
32° 04' 38"
Sunlit
Object was in full shadow at epoch
Visualization orbit readout
Latitude
Unknown
Longitude
Unknown
Altitude
Unknown
Speed
Unknown
Apparent Right ascension
Unknown
Apparent Declination
Unknown
Sunlit
N/A
Visualization observer readout
Local Sidereal Time
18:30:35
Azimuth
Unknown
Elevation
Unknown
Doppler factor
Unknown
Orbital elements
Apogee altitude
164.922 km
Perigee altitude
157.683 km
Semi-major axis
6,539.44 km
Eccentricity
0.00055
Inclination
53.0268°
RAAN
273.1813°
Arg. of periapsis
224.9365°
True anomaly
273.31448°
Mean anomaly
273.3778°
Eccentric anomaly
273.34614°
Mean motion
4.10424 °/min
Orbital period
87.71 mins
BSTAR
0.00062041
Loading maneuver chart data...
Computing Atmospheric mass density...
Loading historical data...
Loading historical data...
Loading historical data...
Loading historical data...
Loading historical data...
Loading historical data...
Loading historical data...

Documentation

Showing up to 5 results
|